Time,TemperatureF,DewpointF,PressureIn,WindDirection,WindDirectionDegrees,WindSpeedMPH,WindSpeedGustMPH,Humidity,HourlyPrecipIn,Conditions,Clouds,dailyrainin,SoftwareType,DateUTC
2013-10-02 00:13:00,79.4,35.0,29.44,North,359,0.0,-999.0,20,-99.99,,,0.00,weatherlink.com 1.10,2013-10-02 07:13:00,
2013-10-02 00:28:00,79.8,35.0,29.44,North,359,0.0,-999.0,20,-99.99,,,0.00,weatherlink.com 1.10,2013-10-02 07:28:00,
2013-10-02 00:43:00,79.6,34.0,29.44,North,353,0.0,-999.0,19,-99.99,,,0.00,weatherlink.com 1.10,2013-10-02 07:43:00,
2013-10-02 00:58:00,77.7,36.0,29.44,North,359,0.0,-999.0,22,-99.99,,,0.00,weatherlink.com 1.10,2013-10-02 07:58:00,
2013-10-02 01:13:00,75.8,36.0,29.45,NNW,328,0.0,-999.0,24,-99.99,,,0.00,weatherlink.com 1.10,2013-10-02 08:13:00,
2013-10-02 01:28:00,74.9,36.0,29.45,North,357,0.0,-999.0,24,-99.99,,,0.00,weatherlink.com 1.10,2013-10-02 08:28:00,
2013-10-02 01:43:00,74.0,35.0,29.44,North,357,0.0,-999.0,24,-99.99,,,0.00,weatherlink.com 1.10,2013-10-02 08:43:00,
2013-10-02 01:58:00,73.3,34.0,29.44,North,357,0.0,-999.0,24,-99.99,,,0.00,weatherlink.com 1.10,2013-10-02 08:58:00,
2013-10-02 02:13:00,72.8,34.0,29.44,North,359,0.0,-999.0,24,-99.99,,,0.00,weatherlink.com 1.10,2013-10-02 09:13:00,
2013-10-02 02:28:00,73.7,34.0,29.44,North,359,0.0,-999.0,23,-99.99,,,0.00,weatherlink.com 1.10,2013-10-02 09:28:00,
2013-10-02 02:43:00,74.6,35.0,29.43,North,359,0.0,-999.0,24,-99.99,,,0.00,weatherlink.com 1.10,2013-10-02 09:43:00,
2013-10-02 02:58:00,74.0,38.0,29.43,North,359,0.0,-999.0,27,-99.99,,,0.00,weatherlink.com 1.10,2013-10-02 09:58:00,
2013-10-02 03:13:00,73.0,38.0,29.43,North,359,3.0,-999.0,28,-99.99,,,0.00,weatherlink.com 1.10,2013-10-02 10:13:00,
2013-10-02 03:28:00,74.0,37.0,29.43,NNE,25,0.0,-999.0,26,-99.99,,,0.00,weatherlink.com 1.10,2013-10-02 10:28:00,
2013-10-02 03:43:00,72.8,37.0,29.43,SSE,160,0.0,-999.0,27,-99.99,,,0.00,weatherlink.com 1.10,2013-10-02 10:43:00,
2013-10-02 03:58:00,71.8,37.0,29.43,SSW,209,0.0,-999.0,28,-99.99,,,0.00,weatherlink.com 1.10,2013-10-02 10:58:00,
2013-10-02 04:13:00,71.1,38.0,29.43,NNW,332,0.0,-999.0,30,-99.99,,,0.00,weatherlink.com 1.10,2013-10-02 11:13:00,
2013-10-02 04:28:00,69.6,40.0,29.44,ENE,66,0.0,-999.0,34,-99.99,,,0.00,weatherlink.com 1.10,2013-10-02 11:28:00,
2013-10-02 04:43:00,68.3,39.0,29.44,ESE,107,0.0,-999.0,34,-99.99,,,0.00,weatherlink.com 1.10,2013-10-02 11:43:00,
2013-10-02 04:58:00,67.9,38.0,29.44,SSE,161,0.0,-999.0,34,-99.99,,,0.00,weatherlink.com 1.10,2013-10-02 11:58:00,
2013-10-02 05:13:00,-999.0,-99.9,29.44,North,-999,-999.0,-999.0,-999,-99.99,,,0.00,weatherlink.com 1.10,2013-10-02 12:13:00,
2013-10-02 05:29:00,-999.0,-99.9,29.44,North,-999,-999.0,-999.0,-999,-99.99,,,0.00,weatherlink.com 1.10,2013-10-02 12:29:00,
2013-10-02 05:44:00,-999.0,-99.9,29.44,North,-999,-999.0,-999.0,-999,-99.99,,,0.00,weatherlink.com 1.10,2013-10-02 12:44:00,
2013-10-02 05:59:00,-999.0,-99.9,29.45,North,-999,-999.0,-999.0,-999,-99.99,,,0.00,weatherlink.com 1.10,2013-10-02 12:59:00,
2013-10-02 06:14:00,-999.0,-99.9,29.45,North,-999,-999.0,-999.0,-999,-99.99,,,0.00,weatherlink.com 1.10,2013-10-02 13:14:00,
2013-10-02 06:29:00,-999.0,-99.9,29.45,North,-999,-999.0,-999.0,-999,-99.99,,,0.00,weatherlink.com 1.10,2013-10-02 13:29:00,
2013-10-02 06:44:00,-999.0,-99.9,29.46,North,-999,-999.0,-999.0,-999,-99.99,,,0.00,weatherlink.com 1.10,2013-10-02 13:44:00,
2013-10-02 06:59:00,-999.0,-99.9,29.46,North,-999,-999.0,-999.0,-999,-99.99,,,0.00,weatherlink.com 1.10,2013-10-02 13:59:00,
2013-10-02 07:14:00,70.8,48.0,29.46,North,359,1.0,-999.0,44,-99.99,,,0.00,weatherlink.com 1.10,2013-10-02 14:14:00,
2013-10-02 07:29:00,72.0,47.0,29.47,North,359,0.0,-999.0,41,-99.99,,,0.00,weatherlink.com 1.10,2013-10-02 14:29:00,
2013-10-02 07:44:00,73.2,48.0,29.47,SSE,155,0.0,-999.0,41,-99.99,,,0.00,weatherlink.com 1.10,2013-10-02 14:44:00,
2013-10-02 07:59:00,74.4,48.0,29.48,WNW,291,3.0,-999.0,40,-99.99,,,0.00,weatherlink.com 1.10,2013-10-02 14:59:00,
2013-10-02 08:14:00,76.7,48.0,29.48,North,356,0.0,-999.0,37,-99.99,,,0.00,weatherlink.com 1.10,2013-10-02 15:14:00,
2013-10-02 08:29:00,78.5,49.0,29.48,North,352,0.0,-999.0,35,-99.99,,,0.00,weatherlink.com 1.10,2013-10-02 15:29:00,
2013-10-02 08:44:00,79.6,48.0,29.49,North,349,1.0,-999.0,33,-99.99,,,0.00,weatherlink.com 1.10,2013-10-02 15:44:00,
2013-10-02 08:59:00,80.9,48.0,29.49,WSW,247,2.0,-999.0,32,-99.99,,,0.00,weatherlink.com 1.10,2013-10-02 15:59:00,
2013-10-02 09:14:00,81.6,48.0,29.49,SSE,154,1.0,-999.0,31,-99.99,,,0.00,weatherlink.com 1.10,2013-10-02 16:14:00,
2013-10-02 09:29:00,82.8,49.0,29.50,NNW,344,2.0,-999.0,31,-99.99,,,0.00,weatherlink.com 1.10,2013-10-02 16:29:00,
2013-10-02 09:44:00,84.0,48.0,29.49,East,89,1.0,-999.0,29,-99.99,,,0.00,weatherlink.com 1.10,2013-10-02 16:44:00,
2013-10-02 09:59:00,85.9,54.0,29.49,North,359,0.0,-999.0,33,-99.99,,,0.00,weatherlink.com 1.10,2013-10-02 16:59:00,
2013-10-02 10:15:00,88.6,56.0,29.49,South,185,1.0,-999.0,33,-99.99,,,0.00,weatherlink.com 1.10,2013-10-02 17:15:00,
2013-10-02 10:30:00,89.5,57.0,29.49,North,357,3.0,-999.0,33,-99.99,,,0.00,weatherlink.com 1.10,2013-10-02 17:30:00,
2013-10-02 10:45:00,89.7,58.0,29.49,North,357,5.0,-999.0,34,-99.99,,,0.00,weatherlink.com 1.10,2013-10-02 17:45:00,
2013-10-02 11:00:00,90.3,56.0,29.48,North,357,5.0,-999.0,31,-99.99,,,0.00,weatherlink.com 1.10,2013-10-02 18:00:00,
2013-10-02 11:15:00,90.5,55.0,29.48,NNW,340,2.0,-999.0,30,-99.99,,,0.00,weatherlink.com 1.10,2013-10-02 18:15:00,
2013-10-02 11:30:00,90.7,57.0,29.48,North,357,3.0,-999.0,32,-99.99,,,0.00,weatherlink.com 1.10,2013-10-02 18:30:00,
2013-10-02 11:45:00,91.2,54.0,29.47,North,357,2.0,-999.0,28,-99.99,,,0.00,weatherlink.com 1.10,2013-10-02 18:45:00,
2013-10-02 12:00:00,91.8,54.0,29.47,North,356,2.0,-999.0,28,-99.99,,,0.00,weatherlink.com 1.10,2013-10-02 19:00:00,
2013-10-02 12:15:00,92.3,53.0,29.47,NW,311,2.0,-999.0,26,-99.99,,,0.00,weatherlink.com 1.10,2013-10-02 19:15:00,
2013-10-02 12:30:00,92.7,52.0,29.46,North,356,4.0,-999.0,25,-99.99,,,0.00,weatherlink.com 1.10,2013-10-02 19:30:00,
2013-10-02 12:45:00,92.7,53.0,29.45,NNW,344,0.0,-999.0,26,-99.99,,,0.00,weatherlink.com 1.10,2013-10-02 19:45:00,
2013-10-02 13:00:00,93.4,49.0,29.45,North,357,6.0,-999.0,22,-99.99,,,0.00,weatherlink.com 1.10,2013-10-02 20:00:00,
2013-10-02 13:15:00,94.5,51.0,29.44,North,357,3.0,-999.0,23,-99.99,,,0.00,weatherlink.com 1.10,2013-10-02 20:15:00,
2013-10-02 13:30:00,94.5,51.0,29.43,North,357,6.0,-999.0,23,-99.99,,,0.00,weatherlink.com 1.10,2013-10-02 20:30:00,
2013-10-02 13:45:00,95.1,49.0,29.42,North,357,7.0,-999.0,21,-99.99,,,0.00,weatherlink.com 1.10,2013-10-02 20:45:00,
2013-10-02 14:00:00,94.9,51.0,29.41,North,357,1.0,-999.0,22,-99.99,,,0.00,weatherlink.com 1.10,2013-10-02 21:00:00,
2013-10-02 14:15:00,95.6,49.0,29.41,North,356,2.0,-999.0,20,-99.99,,,0.00,weatherlink.com 1.10,2013-10-02 21:15:00,
2013-10-02 14:30:00,95.6,50.0,29.40,North,356,5.0,-999.0,21,-99.99,,,0.00,weatherlink.com 1.10,2013-10-02 21:30:00,
2013-10-02 14:45:00,95.6,49.0,29.39,North,356,3.0,-999.0,20,-99.99,,,0.00,weatherlink.com 1.10,2013-10-02 21:45:00,
2013-10-02 15:00:00,95.1,48.0,29.39,North,357,0.0,-999.0,20,-99.99,,,0.00,weatherlink.com 1.10,2013-10-02 22:00:00,
2013-10-02 15:15:00,95.1,47.0,29.39,North,357,5.0,-999.0,19,-99.99,,,0.00,weatherlink.com 1.10,2013-10-02 22:15:00,
2013-10-02 15:30:00,95.6,49.0,29.39,North,357,6.0,-999.0,20,-99.99,,,0.00,weatherlink.com 1.10,2013-10-02 22:30:00,
2013-10-02 15:45:00,95.1,48.0,29.38,North,354,0.0,-999.0,20,-99.99,,,0.00,weatherlink.com 1.10,2013-10-02 22:45:00,
2013-10-02 16:00:00,95.9,49.0,29.38,North,357,2.0,-999.0,20,-99.99,,,0.00,weatherlink.com 1.10,2013-10-02 23:00:00,
2013-10-02 16:15:00,95.9,47.0,29.38,North,357,1.0,-999.0,19,-99.99,,,0.00,weatherlink.com 1.10,2013-10-02 23:15:00,
2013-10-02 16:30:00,95.6,47.0,29.37,North,357,1.0,-999.0,19,-99.99,,,0.00,weatherlink.com 1.10,2013-10-02 23:30:00,
2013-10-02 16:45:00,95.1,48.0,29.37,North,357,2.0,-999.0,20,-99.99,,,0.00,weatherlink.com 1.10,2013-10-02 23:45:00,
2013-10-02 17:00:00,95.1,47.0,29.36,North,357,0.0,-999.0,19,-99.99,,,0.00,weatherlink.com 1.10,2013-10-03 00:00:00,
2013-10-02 17:15:00,93.8,47.0,29.36,North,356,7.0,-999.0,20,-99.99,,,0.00,weatherlink.com 1.10,2013-10-03 00:15:00,
2013-10-02 17:30:00,93.4,47.0,29.36,North,356,4.0,-999.0,20,-99.99,,,0.00,weatherlink.com 1.10,2013-10-03 00:30:00,
2013-10-02 17:45:00,92.5,47.0,29.36,North,356,4.0,-999.0,21,-99.99,,,0.00,weatherlink.com 1.10,2013-10-03 00:45:00,
2013-10-02 18:00:00,91.6,46.0,29.36,North,356,1.0,-999.0,21,-99.99,,,0.00,weatherlink.com 1.10,2013-10-03 01:00:00,
2013-10-02 18:15:00,90.7,46.0,29.36,North,356,1.0,-999.0,21,-99.99,,,0.00,weatherlink.com 1.10,2013-10-03 01:15:00,
2013-10-02 18:30:00,89.7,46.0,29.36,North,357,0.0,-999.0,22,-99.99,,,0.00,weatherlink.com 1.10,2013-10-03 01:30:00,
2013-10-02 18:45:00,88.6,46.0,29.37,North,357,1.0,-999.0,23,-99.99,,,0.00,weatherlink.com 1.10,2013-10-03 01:45:00,
2013-10-02 19:00:00,88.0,50.0,29.38,SW,222,1.0,-999.0,27,-99.99,,,0.00,weatherlink.com 1.10,2013-10-03 02:00:00,
2013-10-02 19:15:00,87.4,49.0,29.38,North,357,0.0,-999.0,26,-99.99,,,0.00,weatherlink.com 1.10,2013-10-03 02:15:00,
2013-10-02 19:30:00,86.7,47.0,29.38,North,357,0.0,-999.0,25,-99.99,,,0.00,weatherlink.com 1.10,2013-10-03 02:30:00,
2013-10-02 19:45:00,85.9,47.0,29.38,North,359,2.0,-999.0,26,-99.99,,,0.00,weatherlink.com 1.10,2013-10-03 02:45:00,
2013-10-02 20:00:00,85.3,47.0,29.38,North,357,1.0,-999.0,26,-99.99,,,0.00,weatherlink.com 1.10,2013-10-03 03:00:00,
2013-10-02 20:15:00,84.5,46.0,29.38,SW,223,2.0,-999.0,26,-99.99,,,0.00,weatherlink.com 1.10,2013-10-03 03:15:00,
2013-10-02 20:30:00,84.1,46.0,29.38,North,359,0.0,-999.0,26,-99.99,,,0.00,weatherlink.com 1.10,2013-10-03 03:30:00,
2013-10-02 20:45:00,83.4,45.0,29.39,North,356,1.0,-999.0,26,-99.99,,,0.00,weatherlink.com 1.10,2013-10-03 03:45:00,
2013-10-02 21:00:00,82.8,41.0,29.39,North,359,2.0,-999.0,23,-99.99,,,0.00,weatherlink.com 1.10,2013-10-03 04:00:00,
2013-10-02 21:15:00,82.6,40.0,29.39,North,359,2.0,-999.0,22,-99.99,,,0.00,weatherlink.com 1.10,2013-10-03 04:15:00,
2013-10-02 21:30:00,81.8,41.0,29.39,North,359,3.0,-999.0,23,-99.99,,,0.00,weatherlink.com 1.10,2013-10-03 04:30:00,
2013-10-02 21:45:00,81.4,42.0,29.39,North,359,2.0,-999.0,25,-99.99,,,0.00,weatherlink.com 1.10,2013-10-03 04:45:00,
2013-10-02 22:00:00,80.9,43.0,29.39,North,359,3.0,-999.0,26,-99.99,,,0.00,weatherlink.com 1.10,2013-10-03 05:00:00,
2013-10-02 22:15:00,80.3,43.0,29.39,North,359,4.0,-999.0,27,-99.99,,,0.00,weatherlink.com 1.10,2013-10-03 05:15:00,
2013-10-02 22:30:00,79.8,43.0,29.39,North,357,3.0,-999.0,27,-99.99,,,0.00,weatherlink.com 1.10,2013-10-03 05:30:00,
2013-10-02 22:45:00,79.4,43.0,29.39,North,357,0.0,-999.0,27,-99.99,,,0.00,weatherlink.com 1.10,2013-10-03 05:45:00,
2013-10-02 23:00:00,79.2,43.0,29.39,North,357,2.0,-999.0,28,-99.99,,,0.00,weatherlink.com 1.10,2013-10-03 06:00:00,
2013-10-02 23:15:00,79.0,43.0,29.39,North,357,2.0,-999.0,28,-99.99,,,0.00,weatherlink.com 1.10,2013-10-03 06:15:00,
2013-10-02 23:30:00,78.5,43.0,29.39,North,357,1.0,-999.0,28,-99.99,,,0.00,weatherlink.com 1.10,2013-10-03 06:30:00,
2013-10-02 23:45:00,78.3,43.0,29.39,North,357,5.0,-999.0,28,-99.99,,,0.00,weatherlink.com 1.10,2013-10-03 06:45:00,